This is the latest recevied weather packets stored in our database for station/object KF0FSA. If no packets are shown the sender has not sent any weather packets the latest 10 day(s).
| Time | Temp. | Humidity | Pressure | Rain* | Wind** | Luminosity | Snow |
|---|---|---|---|---|---|---|---|
| 1777782253 | 16.67° C | 37% | 956.3 hPa | 0 mm | - | 0 W/m² | - |
| 1777781953 | 15.56° C | 40% | 956.3 hPa | 0 mm | - | 0 W/m² | - |
| 1777781652 | 16.11° C | 40% | 956.4 hPa | 0 mm | - | 0 W/m² | - |
| 1777781477 | 16.67° C | 37% | 956.3 hPa | 0 mm | - | 0 W/m² | - |
| 1777781053 | 16.67° C | 37% | 955.5 hPa | 0 mm | - | 0 W/m² | - |
| 1777780753 | 16.67° C | 35% | 955.6 hPa | 0 mm | - | 0 W/m² | - |
| 1777780453 | 16.11° C | 35% | 955.3 hPa | 0 mm | - | 0 W/m² | - |
| 1777780277 | 16.11° C | 34% | 955.2 hPa | 0 mm | - | 0 W/m² | - |
| 1777779975 | 16.11° C | 34% | 955.3 hPa | 0 mm | - | 0 W/m² | - |
| 1777779550 | 16.11° C | 33% | 955.4 hPa | 0 mm | - | 0 W/m² | - |
| 1777779250 | 16.67° C | 34% | 955.6 hPa | 0 mm | - | 0 W/m² | - |
| 1777779075 | 16.67° C | 32% | 955.8 hPa | 0 mm | - | 0 W/m² | - |
| 1777778650 | 16.67° C | 30% | 955.9 hPa | 0 mm | - | 0 W/m² | - |
| 1777778350 | 16.67° C | 30% | 955.9 hPa | 0 mm | - | 0 W/m² | - |
| 1777778050 | 17.22° C | 30% | 955.8 hPa | 0 mm | - | 0 W/m² | - |
| 1777777751 | 17.22° C | 29% | 955.9 hPa | 0 mm | - | 0 W/m² | - |
| 1777777464 | 17.22° C | 30% | 955.9 hPa | 0 mm | - | 0 W/m² | - |
| 1777777150 | 17.22° C | 30% | 955.9 hPa | 0 mm | - | 0 W/m² | - |
| 1777776850 | 17.22° C | 29% | 955.8 hPa | 0 mm | - | 0 W/m² | - |
| 1777776551 | 17.22° C | 29% | 955.8 hPa | 0 mm | - | 0 W/m² | - |
| 1777776375 | 17.22° C | 29% | 955.7 hPa | 0 mm | - | 0 W/m² | - |
| 1777776074 | 17.22° C | 29% | 956.2 hPa | 0 mm | - | 0 W/m² | - |
| 1777775775 | 17.22° C | 29% | 956.2 hPa | 0 mm | - | 0 W/m² | - |
| 1777775348 | 17.22° C | 29% | 956.1 hPa | 0 mm | - | 0 W/m² | - |
| 1777775045 | 17.22° C | 29% | 956.1 hPa | 0 mm | - | 0 W/m² | - |
* Rain latest hour (hover to see other rain measurements)
** Current wind speed in m/s (hover to see current wind gust speed)